Location: Sternwarte-Kraichtal
(49.1689°N, 8.6996°E)
Time: 20:45:36
(UTC+02:00)

Vanguard 2 Rocket - Pass Details

Date: 29 May 2022
Orbit: 553 x 3323 km, 32.9° (Epoch: 02 July)

Event Time Altitude Azimuth Distance (km) Brightness Sun altitude
Rises 11:01:58 0° 187° (S) 6,941 11.6 50.9°
Reaches altitude 10° 11:09:14 10° 170° (S) 6,184 11.7 51.9°
Maximum altitude 11:19:47 17° 138° (SE) 5,651 11.9 53.3°
Drops below altitude 10° 11:29:56 10° 106° (ESE) 5,986 11.8 54.6°
Sets 11:36:36 0° 89° (E) 6,644 11.7 55.4°
